KINEIS-4A

Last updated on Sun Apr 12 2026 00:02:47 GMT+0000 (Coordinated Universal Time)

1 63303U 25056D 26101.42575478 -.00000056 00000+0 -10867-5 0 9994 2 63303 97.9511 227.2070 0002991 136.7473 223.3970 14.72311272 57302
UTC large
Height (km)
Speed (km/s)
/
Latitude / Longitude
Inclination (degrees)
Orbital Period (minutes)
Azimuth
Elevation
Range (km)
Doppler Factor

Next 0 passes for location: London (51.5072 / 0.1276)

Sorry there are no passes over London.
KINEIS-4A